Weather History for KPEQ - January, 2012

Change the Weather History Date:

Thursday, January 19, 2012

  Actual Average Record
Temperature  
Mean Temperature 62 °F -  
Max Temperature 75 °F 59 °F 82 °F (1914)
Min Temperature 49 °F 29 °F 10 °F (1987)
Degree Days  
Heating Degree Days 3    
Growing Degree Days 12 (Base 50)    
Moisture  
Dew Point 20 °F    
Average Humidity 21    
Maximum Humidity 32    
Minimum Humidity 13    
Precipitation  
Precipitation 0.00 in - - ()
Sea Level Pressure  
Sea Level Pressure 29.95 in    
Wind  
Wind Speed 13 mph (WSW)    
Max Wind Speed 25 mph    
Max Gust Speed 31 mph    
Visibility 10 miles    
Events      
Averages and records for this station are not official NWS values.
T = Trace of Precipitation, MM = Missing Value Source: NWS Daily Summary

Daily Weather History Graph

Daily Weather History Graph

Search for Another Location

Airport or City:

Trip Planner

Search our weather history database for the weather conditions in past years. The results will help you decide how hot, cold, wet, or windy it might be!

Date:

Astronomy

Jan. 19, 2012 Rise Set
Actual Time 7:52 AM CST 6:16 PM CST
Civil Twilight 7:26 AM CST 6:42 PM CST
Nautical Twilight 6:57 AM CST 7:12 PM CST
Astronomical Twilight 6:27 AM CST 7:41 PM CST
Moon 4:27 AM CST (1/19) 2:55 PM CST (1/19)
Length of Visible Light 11h 16m
Length of Day
10h 24m
Waning Crescent, 15% of the Moon is Illuminated
Jan 19
Waning Crescent
Jan 23
New
Jan 30
First Quarter
Feb 7
Full
Feb 14
Last Quarter

Hourly Weather History & Observations

Time (CST) Temp. Dew Point Humidity Pressure Visibility Wind Dir Wind Speed Gust Speed Precip Events Conditions
12:15 AM 53.2 °F 22.1 °F 30% 30.02 in 10.0 mi SW 8.1 mph - N/A   Clear
12:35 AM 52.0 °F 21.9 °F 31% 30.00 in 10.0 mi SW 10.4 mph - N/A   Clear
12:55 AM 51.3 °F 21.4 °F 31% 30.00 in 10.0 mi SW 9.2 mph - N/A   Clear
1:15 AM 51.6 °F 21.0 °F 30% 30.00 in 10.0 mi SW 5.8 mph - N/A   Clear
1:35 AM 50.2 °F 21.0 °F 32% 29.99 in 10.0 mi WSW 10.4 mph - N/A   Clear
1:55 AM 52.9 °F 19.8 °F 27% 30.00 in 10.0 mi SW 5.8 mph - N/A   Clear
2:15 AM 49.5 °F 20.3 °F 32% 29.99 in 10.0 mi SSW 8.1 mph - N/A   Clear
2:35 AM 49.3 °F 20.7 °F 32% 29.99 in 10.0 mi WSW 10.4 mph - N/A   Clear
2:55 AM 53.1 °F 19.9 °F 27% 29.99 in 10.0 mi WSW 15.0 mph - N/A   Clear
3:15 AM 56.1 °F 18.9 °F 23% 29.98 in 10.0 mi WSW 16.1 mph - N/A   Clear
3:35 AM 56.1 °F 18.5 °F 23% 29.98 in 10.0 mi WSW 15.0 mph - N/A   Clear
3:55 AM 55.9 °F 18.7 °F 23% 29.98 in 10.0 mi WSW 12.7 mph 20.7 mph N/A   Clear
4:15 AM 55.9 °F 19.2 °F 24% 29.97 in 10.0 mi SW 12.7 mph - N/A   Clear
4:35 AM 55.8 °F 19.4 °F 24% 29.97 in 10.0 mi WSW 16.1 mph - N/A   Clear
4:55 AM 56.3 °F 19.4 °F 24% 29.97 in 10.0 mi WSW 17.3 mph - N/A   Clear
5:15 AM 56.1 °F 18.9 °F 23% 29.97 in 10.0 mi WSW 16.1 mph - N/A   Clear
5:35 AM 55.9 °F 18.5 °F 23% 29.97 in 10.0 mi WSW 16.1 mph 20.7 mph N/A   Clear
6:15 AM 55.9 °F 19.0 °F 24% 29.97 in 10.0 mi WSW 18.4 mph - N/A   Clear
6:35 AM 55.8 °F 19.4 °F 24% 29.97 in 10.0 mi WSW 19.6 mph 25.3 mph N/A   Clear
7:15 AM 54.5 °F 19.6 °F 26% 29.97 in 10.0 mi WSW 17.3 mph - N/A   Clear
7:35 AM 53.8 °F 19.9 °F 27% 29.98 in 10.0 mi WSW 16.1 mph - N/A   Clear
7:55 AM 53.2 °F 20.1 °F 27% 29.98 in 10.0 mi WSW 13.8 mph - N/A   Clear
8:15 AM 52.7 °F 20.5 °F 28% 29.99 in 10.0 mi WSW 15.0 mph - N/A   Clear
8:35 AM 53.1 °F 21.0 °F 29% 29.99 in 10.0 mi WSW 13.8 mph - N/A   Clear
8:55 AM 54.3 °F 21.4 °F 28% 30.00 in 10.0 mi WSW 12.7 mph - N/A   Clear
9:15 AM 55.8 °F 21.9 °F 27% 30.00 in 10.0 mi WSW 12.7 mph - N/A   Clear
9:35 AM 58.3 °F 21.7 °F 24% 30.01 in 10.0 mi WSW 17.3 mph - N/A   Clear
9:55 AM 60.4 °F 21.4 °F 22% 30.01 in 10.0 mi WSW 18.4 mph - N/A   Clear
10:15 AM 61.9 °F 21.2 °F 21% 30.03 in 10.0 mi SW 15.0 mph 21.9 mph N/A   Clear
10:35 AM 63.9 °F 21.2 °F 20% 30.03 in 10.0 mi WSW 15.0 mph 20.7 mph N/A   Clear
10:55 AM 65.7 °F 21.0 °F 18% 30.03 in 10.0 mi WSW 15.0 mph - N/A   Clear
11:35 AM 68.7 °F 20.7 °F 16% 30.01 in 10.0 mi WSW 11.5 mph 17.3 mph N/A   Clear
11:55 AM 70.0 °F 20.5 °F 15% 30.00 in 10.0 mi West 12.7 mph 19.6 mph N/A   Clear
12:15 PM 71.4 °F 20.1 °F 14% 29.99 in 10.0 mi West 20.7 mph 24.2 mph N/A   Clear
12:35 PM 71.6 °F 19.4 °F 14% 29.98 in 10.0 mi West 18.4 mph 23.0 mph N/A   Clear
12:55 PM 72.5 °F 19.6 °F 14% 29.96 in 10.0 mi WSW 20.7 mph 27.6 mph N/A   Clear
1:15 PM 73.6 °F 19.6 °F 13% 29.95 in 10.0 mi West 21.9 mph 27.6 mph N/A   Clear
1:35 PM 74.1 °F 19.9 °F 13% 29.93 in 10.0 mi West 18.4 mph 27.6 mph N/A   Clear
1:55 PM 74.3 °F 20.3 °F 13% 29.92 in 10.0 mi WSW 25.3 mph 31.1 mph N/A   Clear
2:15 PM 74.3 °F 20.5 °F 13% 29.91 in 10.0 mi WSW 19.6 mph - N/A   Clear
2:35 PM 73.9 °F 20.5 °F 13% 29.91 in 10.0 mi WSW 19.6 mph 26.5 mph N/A   Clear
2:55 PM 73.9 °F 20.7 °F 14% 29.91 in 10.0 mi WSW 20.7 mph 28.8 mph N/A   Clear
3:15 PM 74.3 °F 20.5 °F 13% 29.90 in 10.0 mi WSW 20.7 mph - N/A   Clear
3:35 PM 75.6 °F 21.0 °F 13% 29.90 in 10.0 mi WSW 24.2 mph 28.8 mph N/A   Clear
3:55 PM 75.0 °F 20.3 °F 13% 29.90 in 10.0 mi WSW 24.2 mph 27.6 mph N/A   Clear
4:15 PM 74.1 °F 19.4 °F 13% 29.89 in 10.0 mi WSW 19.6 mph 27.6 mph N/A   Clear
4:35 PM 73.6 °F 19.0 °F 13% 29.89 in 10.0 mi WSW 21.9 mph 27.6 mph N/A   Clear
4:55 PM 73.0 °F 18.5 °F 13% 29.89 in 10.0 mi WSW 20.7 mph 26.5 mph N/A   Clear
5:15 PM 72.5 °F 18.7 °F 13% 29.88 in 10.0 mi WSW 16.1 mph - N/A   Clear
5:35 PM 71.6 °F 18.5 °F 13% 29.88 in 10.0 mi WSW 16.1 mph - N/A   Clear
5:55 PM 70.2 °F 17.6 °F 14% 29.88 in 10.0 mi WSW 11.5 mph - N/A   Clear
6:15 PM 68.0 °F 17.4 °F 14% 29.88 in 10.0 mi WSW 10.4 mph - N/A   Clear
6:35 PM 66.6 °F 17.2 °F 15% 29.88 in 10.0 mi WSW 12.7 mph - N/A   Clear
6:55 PM 65.8 °F 17.6 °F 16% 29.88 in 10.0 mi WSW 10.4 mph - N/A   Clear
7:15 PM 63.7 °F 18.3 °F 17% 29.88 in 10.0 mi SW 8.1 mph - N/A   Clear
7:35 PM 60.3 °F 20.1 °F 21% 29.88 in 10.0 mi SSW 6.9 mph - N/A   Clear
7:55 PM 58.6 °F 20.7 °F 23% 29.88 in 10.0 mi SW 10.4 mph - N/A   Clear
8:15 PM 57.6 °F 21.0 °F 24% 29.88 in 10.0 mi SW 9.2 mph - N/A   Clear
8:35 PM 59.2 °F 20.5 °F 22% 29.88 in 10.0 mi SW 9.2 mph - N/A   Clear
8:55 PM 60.1 °F 20.1 °F 21% 29.88 in 10.0 mi SW 9.2 mph - N/A   Clear
9:15 PM 60.1 °F 19.8 °F 21% 29.88 in 10.0 mi SW 10.4 mph - N/A   Clear
9:35 PM 59.5 °F 19.8 °F 21% 29.88 in 10.0 mi SW 8.1 mph - N/A   Clear